ATLAS 5 CENTAUR DEB, 43976

Orbit data source: Space-Track

ATLAS 5 CENTAUR DEB, 43976 is space debris in HEO originally from a launch on Wed, 17 Sep 2014 UTC launched from the Air Force Eastern Test Range (AFETR). Debris objects in space refer to the collection of defunct objects orbiting the Earth. Examples of debris include non-operational satellites, rocket bodies, and fragments generated from explosions, collisions, or faulty payload assembly.

Loading next visibility...
Identifier
43976, 2014-055AF
Orbit
HEO
Last TLE update
23 hours ago
Origin
Flag of USUnited Launch Alliance/Lockheed Martin (US)
Manufacturer
Unknown
Mission
Spacecraft
Bus & Motor
Unknown
Mass
Unknown
Launch date (UTC)
2014-09-17 (11 years ago)
Launch vehicle
Unknown
Launch site
Air Force Eastern Test Range (AFETR)
Object type
Payload
Rocket body
Debris
Shape & HBR
Unknown
Radar Cross Section
Small (<0.1 m²)

Expand to show TLE details & history

TLE from 23 hours ago
0 ATLAS 5 CENTAUR DEB
1 43976U 14055AF  25181.46329641 -.00000044  00000-0  00000-0 0  9995
2 43976  19.4575 183.3108 4848276  92.7998 321.4482  1.83493048 45743
Epoch: 2025-06-30T11:07Z
TLE epoch observation values (Epoch: 2025-06-30T11:07:08.809Z)
Latitude
Longitude
97.72932°
Altitude
15,683.18 km
Speed
4.69 km/s
True Right ascension
12h 13m 09s
True Declination
0° 00' 00"
Sunlit
Object was in daylight at epoch
Visualization orbit readout
Latitude
-17.93311°
Longitude
31.30028°
Altitude
33,348.96 km
Speed
2.434 km/s
Apparent Right ascension
07h 58m 57s
Apparent Declination
-21° 04' 39"
Sunlit
Object is in daylight
Visualization observer readout
Local Sidereal Time
21:30:09
Azimuth
52.633° ENE
Elevation
-62.938°
Doppler factor
1
Orbital elements
Apogee altitude
35,471.825 km
Perigee altitude
8,142.03 km
Semi-major axis
28,185.065 km
Eccentricity
0.48483
Inclination
19.4575°
RAAN
183.3108°
Arg. of periapsis
92.7998°
True anomaly
Unknown
Mean anomaly
321.4482°
Eccentric anomaly
Unknown
Mean motion
0.45869 °/min
Orbital period
784.85 mins
BSTAR
0
Loading maneuver chart data...
Loading SW <> Apogee altitude chart data...
Loading historical data...
Loading historical data...
Loading historical data...
Loading historical data...
Loading historical data...
Loading historical data...
Loading historical data...

ATLAS 5 CENTAUR DEB Visibility forecast

Observer location: undefined°, undefined°

Span
Click to sort rows by Start time (UTC) header in descending order
Start Az.
Max El. time (UTC)
Max El. Az.
Max El.
End time (UTC)
End Az.
725 mins2025-07-01 15:50:47.806Z245.445° WSW2025-07-02 03:14:47.806Z164.446° S36.94°2025-07-02 03:55:47.806Z95.324° ESE
|